Printer-friendly version

IAU Minor Planet Center

Minor Planet Center

MPEC 2006-W50 : 2006 WL3

The following Minor Planet Electronic Circular may be linked-to from your own Web pages, but must not otherwise be redistributed electronically.

A form allowing access to any MPEC is at the bottom of this page.


Read MPEC 2006-W49 Read MPEC 2006-W51


M.P.E.C. 2006-W50                                Issued 2006 Nov. 22, 01:02 UT

     The Minor Planet Electronic Circulars contain information on unusual
         minor planets and routine data on comets.  They are published
   on behalf of Commission 20 of the International Astronomical Union by the
          Minor Planet Center, Smithsonian Astrophysical Observatory,
                          Cambridge, MA 02138, U.S.A.

             Prepared using the Tamkin Foundation Computer Network

                              MPC@CFA.HARVARD.EDU
          URL http://cfa-www.harvard.edu/iau/mpc.html  ISSN 1523-6714

                                   2006 WL3

Observations:
     K06W03L* C2006 11 19.47617 09 07 08.04 +14 48 29.5          20.9 V EW050G96
     K06W03L  C2006 11 19.48282 09 07 09.87 +14 48 39.3          20.5 V EW050G96
     K06W03L  C2006 11 19.48949 09 07 11.64 +14 48 48.9          20.3 V EW050G96
     K06W03L  C2006 11 19.49615 09 07 13.47 +14 48 57.6          20.7 V EW050G96
     K06W03L  C2006 11 20.41184 09 11 29.36 +15 10 19.5          20.4 V EW050G96
     K06W03L  C2006 11 20.42498 09 11 32.96 +15 10 38.6          20.9 V EW050G96
     K06W03L  C2006 11 21.19662 09 15 11.04 +15 28 57.1          20.4 R EW050J95
     K06W03L  C2006 11 21.24224 09 15 23.77 +15 30 02.5          20.5 R EW050J95
     K06W03L  C2006 11 21.44295 09 16 21.79 +15 34 57.7          19.8 V EW050G96
     K06W03L  C2006 11 21.44756 09 16 23.12 +15 35 04.6          20.2 V EW050G96
     K06W03L  C2006 11 21.44984 09 16 23.73 +15 35 08.0          20.1 V EW050G96

Observer details:
G96 Mt. Lemmon Survey.  Observers S. M. Larson, A. R. Gibbs.  Measurers
    E. C. Beshore, E. J. Christensen, G. J. Garradd, A. R. Gibbs, A. D. Grauer,
    R. E. Hill, R. A. Kowalski, S. M. Larson, R. H. McNaught.  1.5-m reflector
    + CCD.
J95 Great Shefford.  Observer P. Birtwhistle.  0.40-m f/6.0 Schmidt-Cassegrain
    + CCD.

Orbital elements:
2006 WL3                                                 Earth MOID = 0.1710 AU
Epoch 2006 Sept. 22.0 TT = JDT 2454000.5                MPC
M 289.22111              (2000.0)            P               Q
n   0.56483248     Peri.   61.40476     -0.74722982     -0.55864116
a   1.4494045      Node    82.36504     +0.40811110     -0.81321193
e   0.2755811      Incl.   21.29530     +0.52449301     -0.16311470
P   1.74           H   19.7           G   0.15           U   9
Residuals in seconds of arc
061119 G96  0.4-  0.3-    061120 G96  0.2-  0.4-    061121 G96  0.6-  0.1-
061119 G96  0.0   0.2+    061120 G96  0.6-  0.1-    061121 G96  0.0   0.1+
061119 G96  0.4-  0.5+    061121 J95  0.3+  0.3+    061121 G96  0.4-  0.2+
061119 G96  0.0   0.0     061121 J95  0.6-  0.1-

Ephemeris:
2006 WL3                 a,e,i = 1.45, 0.28, 21                  q = 1.0500
Date    TT    R. A. (2000) Decl.     Delta      r     Elong.  Phase     V
2006 11 21    09 14.25   +15 24.4    0.481    1.186   102.2    54.5    20.5
2006 12 01    10 06.10   +19 46.8    0.425    1.151   101.9    56.9    20.2
2006 12 11    11 07.30   +24 29.1    0.390    1.120   100.1    59.9    20.0
2006 12 21    12 15.34   +28 31.2    0.376    1.094    96.8    63.2    20.0
2006 12 31    13 23.52   +30 59.0    0.382    1.073    93.0    66.2    20.1
2007 01 10    14 24.75   +31 44.9    0.403    1.059    89.4    68.3    20.2
2007 01 20    15 15.66   +31 21.1    0.431    1.051    86.7    69.2    20.4
2007 01 30    15 56.48   +30 21.6    0.461    1.051    85.1    69.1    20.6
2007 02 09    16 29.11   +29 07.6    0.487    1.058    84.5    68.2    20.7
2007 02 19    16 55.28   +27 51.3    0.507    1.072    85.1    66.7    20.7
2007 03 01    17 16.12   +26 36.8    0.519    1.092    86.8    64.9    20.8
2007 03 11    17 32.32   +25 23.9    0.521    1.119    89.6    62.6    20.8
2007 03 21    17 43.97   +24 10.5    0.515    1.149    93.6    59.9    20.7
2007 03 31    17 50.68   +22 49.1    0.500    1.184    98.9    56.5    20.6
2007 04 10    17 51.87   +21 08.7    0.478    1.221   105.7    52.2    20.5
2007 04 20    17 46.60   +18 53.3    0.453    1.260   114.3    46.6    20.2
2007 04 30    17 34.14   +15 39.5    0.429    1.301   124.8    39.5    20.0
2007 05 10    17 14.75   +11 06.9    0.412    1.341   137.2    30.7    19.7
2007 05 20    16 50.30   +05 12.3    0.409    1.382   150.3    21.3    19.5
2007 05 30    16 24.72   -01 32.9    0.428    1.423   159.9    14.2    19.4
2007 06 09    16 02.33   -08 11.5    0.469    1.462   158.7    14.6    19.7
2007 06 19    15 45.96   -13 59.7    0.533    1.501   149.7    20.0    20.2
2007 06 29    15 36.58   -18 44.3    0.616    1.538   139.5    25.4    20.7
2007 07 09    15 33.65   -22 32.0    0.712    1.573   130.1    29.6    21.2
2007 07 19    15 36.17   -25 35.7    0.820    1.606   121.7    32.5    21.7

Timothy B. Spahr             (C) Copyright 2006 MPC           M.P.E.C. 2006-W50

Read MPEC 2006-W49 Read MPEC 2006-W51


MPEC number:

Enter an
MPEC number in one of the following forms:
  • 1997-B01 (the full form)
  • J97B01 (the packed version of the full form)
  • B01 (the abbreviated form)

Valid HTML 4.01!